Location: Grossmotten
(48.5500°N, 15.3833°E)
Time: 15:17:43
(UTC+00:00)

SMAP - Pass Details

Date: 15 November 2019
Orbit: 682 x 683 km, 98.1° (Epoch: 05 December)

Event Time Altitude Azimuth Distance (km) Brightness Sun altitude
Rises 05:28:14 0° 13° (NNE) 3,057 6.3 -6.5°
Reaches altitude 10° 05:30:29 10° 14° (NNE) 2,137 5.6 -6.2°
Maximum altitude 05:35:10 90° 10° (N) 690 3.1 -5.4°
Drops below altitude 10° 05:39:50 10° 196° (SSW) 2,120 5.7 -4.7°
Sets 05:42:03 0° 196° (SSW) 3,031 6.5 -4.4°
